• MPC Preparation (Info)

  • MPEC 2014-E35 : 2014 EC

    The following Minor Planet Electronic Circular may be linked-to from your own Web pages, but must not otherwise be redistributed electronically.

    A form allowing access to any MPEC is at the bottom of this page.


    Read MPEC 2014-E34 Read MPEC 2014-E36


    M.P.E.C. 2014-E35                                Issued 2014 Mar. 5, 14:59 UT
    
         The Minor Planet Electronic Circulars contain information on unusual
             minor planets and routine data on comets.  They are published
       on behalf of Commission 20 of the International Astronomical Union by the
              Minor Planet Center, Smithsonian Astrophysical Observatory,
                              Cambridge, MA 02138, U.S.A.
    
                 Prepared using the Tamkin Foundation Computer Network
    
                                  MPC@CFA.HARVARD.EDU
                URL https://www.minorplanetcenter.net/    ISSN 1523-6714
    
                                        2014 EC
    
    Observations:
         K14E00C* C2014 03 05.29096 11 03 33.63 +10 21 55.8          19.1 VqEE035703
         K14E00C  C2014 03 05.29598 11 03 32.14 +10 21 38.3          19.1 VqEE035703
         K14E00C  C2014 03 05.30099 11 03 30.55 +10 21 18.5          19.0 VqEE035703
         K14E00C  C2014 03 05.30600 11 03 29.05 +10 21 01.5          19.4 VqEE035703
         K14E00C KC2014 03 05.35164811 03 03.24 +10 16 36.9          19.7 VqEE035H21
         K14E00C KC2014 03 05.35437311 03 02.43 +10 16 25.4          19.3 VqEE035H21
         K14E00C KC2014 03 05.35709911 03 01.71 +10 16 13.1          19.2 VqEE035H21
         K14E00C KC2014 03 05.35972011 03 01.05 +10 16 02.0          19.4 VqEE035H21
         K14E00C  C2014 03 05.37640 11 03 06.45 +10 16 17.2          19.4 VqEE035703
         K14E00C  C2014 03 05.38225 11 03 04.63 +10 15 51.4          18.9 VqEE035703
         K14E00C  C2014 03 05.38809 11 03 02.65 +10 15 25.2          19.1 VqEE035703
         K14E00C KC2014 03 05.48503 11 02 34.08 +10 07 34.5          19.1 RoEE035291
         K14E00C KC2014 03 05.48595 11 02 33.85 +10 07 30.1          19.1 RoEE035291
         K14E00C KC2014 03 05.48688 11 02 33.58 +10 07 24.5          18.0 RoEE035291
    
    Observer details:
    291 LPL/Spacewatch II.  Observer R. A. Mastaler.  1.8-m f/2.7 reflector + CCD.
    703 Catalina Sky Survey.  Observer R. E. Hill.  Measurers E. J. Christensen,
        A. R. Gibbs, A. D. Grauer, R. E. Hill, J. A. Johnson, R. A. Kowalski,
        S. M. Larson, F. C. Shelly.  0.68-m Schmidt + CCD.
    H21 Astronomical Research Observatory, Westfield.  Observer R. Holmes.
        Measurers T. Vorobjov, L. Buzzi, S. Foglia, T. Linder.  0.61-m f/4.0
        astrograph + CCD.
    
    Orbital elements:
    2014 EC                                                  Earth MOID = 0.0003 AU
    Epoch 2013 Nov. 4.0 TT = JDT 2456600.5                  MPC
    M 260.45998              (2000.0)            P               Q
    n   0.57090722     Peri.  262.84890     -0.36747493     +0.92995073
    a   1.4391046      Node   345.57225     -0.83243862     -0.33483084
    e   0.5131972      Incl.    2.85321     -0.41473862     -0.15192087
    P   1.73           H   28.1           G   0.15           U   7
    Residuals in seconds of arc
    140305 703  0.5-  0.3-    140305 H21  0.5-  0.1-    140305 703  0.4-  0.3+
    140305 703  0.1+  0.4+    140305 H21  0.0   0.4-    140305 291  0.1-  0.2-
    140305 703  0.6-  1.0-    140305 H21  0.9+  0.1+    140305 291  0.1+  0.3+
    140305 703  0.1+  0.6+    140305 703  0.1+  0.7+    140305 291  0.3-  0.3-
    140305 H21  0.3+  0.5-    140305 703  1.1+  0.6+
    
    Ephemeris:
    2014 EC                  a,e,i = 1.44, 0.51, 3                   q = 0.7006
    Date    TT    R. A. (2000) Decl.     Delta      r     Elong.  Phase     V
    2014 02 03    10 59 42.8 +11 55 39   0.3042  1.2622   151.9    21.6    27.1
    ...
    2014 02 18    11 04 34.8 +11 46 44   0.1531  1.1371   165.4    12.7    25.1
    ...
    2014 02 26    11 05 20.6 +11 41 51   0.07931 1.0687   172.1     7.3    23.3
    ...
    2014 03 04    11 04 32.8 +11 08 17   0.02584 1.0173   175.2     4.7    20.6
    2014 03 05    11 03 50.2 +10 40 24   0.01701 1.0087   175.5     4.4    19.7
    2014 03 06    11 01 38.3 +09 11 42   0.0081971.0002   176.5     3.4    18.0
    ...
    2014 03 12    23 02 27.4 -09 43 33   0.04486 0.9492     8.8   170.8
    ...
    2014 03 20    23 02 44.1 -09 14 46   0.1173  0.8836    16.1   161.8    34.8
    ...
    2014 04 04    23 09 57.0 -08 03 26   0.2677  0.7759    28.7   141.8    31.8
    
    A. U. Tomatic                (C) Copyright 2014 MPC           M.P.E.C. 2014-E35
    

    Read MPEC 2014-E34 Read MPEC 2014-E36


    MPEC number:

    Enter an MPEC number in one of the following forms:

    • 1997-B01 (the full form)
    • J97B01 (the packed version of the full form)
    • B01 (the abbreviated form)